GW3178 Weather Reports


time (UTC)temp
F
wind
direction
speed
knots
gust
knots
rain 1hr
in
rain 24hr
in
rain mn
in
humidity
%
barometer
mb
20260507105300 43 158 0.0 0.0 0.00 0.00 0.00 90 1013.2
20260507104758 42 153 0.0 0.0 0.00 0.00 0.00 89 1012.9
20260507104254 43 158 0.0 0.0 0.00 0.00 0.00 88 1013.0
20260507103750 42 159 0.0 0.0 0.00 0.00 0.00 87 1012.8
20260507103246 42 159 0.0 0.0 0.00 0.00 0.00 86 1012.5
20260507102742 42 160 0.0 0.0 0.00 0.00 0.00 86 1012.8
20260507102234 42 160 0.0 0.0 0.00 0.00 0.00 85 1012.6
20260507101730 43 158 0.0 0.0 0.00 0.00 0.00 84 1012.6
20260507101225 43 162 0.0 0.0 0.00 0.00 0.00 83 1012.4
20260507100722 43 173 0.0 0.0 0.00 0.00 0.00 81 1012.4
20260507100221 44 173 0.0 0.0 0.00 0.00 0.00 80 1012.5
20260507095718 44 173 0.0 0.0 0.00 0.00 0.00 79 1012.3
20260507095209 45 174 0.0 0.0 0.00 0.00 0.00 78 1012.4
20260507094706 45 179 0.0 0.0 0.00 0.00 0.00 78 1012.6
20260507094203 45 178 0.0 0.0 0.00 0.00 0.00 78 1012.5
20260507093659 46 179 0.0 0.0 0.00 0.00 0.00 78 1012.3
20260507093158 46 170 0.0 0.0 0.00 0.00 0.00 77 1012.6
20260507092655 46 172 0.0 0.0 0.00 0.00 0.00 77 1012.8
20260507092151 46 179 0.0 0.0 0.00 0.00 0.00 77 1012.8
20260507091648 46 181 0.0 0.0 0.00 0.00 0.00 77 1012.9
20260507091144 46 178 0.0 0.0 0.00 0.00 0.00 79 1012.9
20260507090640 47 188 0.0 0.0 0.00 0.00 0.00 80 1012.6
20260507090137 47 183 0.0 0.0 0.00 0.00 0.00 78 1012.6
20260507085634 47 199 0.0 0.0 0.00 0.00 0.00 79 1012.4
20260507085131 47 166 0.0 0.0 0.00 0.00 0.00 78 1012.4
20260507084628 46 285 0.0 0.0 0.00 0.00 0.00 80 1012.6
20260507084124 46 170 0.0 0.0 0.00 0.00 0.00 81 1012.5
20260507083621 47 160 0.0 0.0 0.00 0.00 0.00 83 1012.6
20260507083118 47 161 0.0 0.0 0.00 0.00 0.00 80 1012.4
20260507082614 46 172 0.0 0.0 0.00 0.00 0.00 82 1012.3
20260507082110 46 160 0.0 0.0 0.00 0.00 0.00 91 1012.5
20260507081607 46 161 0.0 0.0 0.00 0.00 0.00 91 1012.5
20260507081104 46 161 0.0 0.0 0.00 0.00 0.00 92 1012.3
20260507080600 46 161 0.0 0.0 0.00 0.00 0.00 92 1012.3
20260507080056 46 160 0.0 0.0 0.00 0.00 0.00 93 1012.3
20260507075551 46 160 0.0 0.0 0.00 0.00 0.00 93 1012.5
20260507075048 46 160 0.0 0.0 0.00 0.00 0.00 94 1012.6
20260507074545 46 160 0.0 0.0 0.00 0.00 0.00 94 1012.3
20260507074043 46 160 0.0 0.0 0.00 0.00 0.00 95 1012.3
20260507073538 46 159 0.0 0.0 0.00 0.00 0.00 95 1012.2
20260507073030 46 161 0.0 0.0 0.00 0.00 0.00 95 1012.3
20260507072527 46 161 0.0 0.0 0.00 0.00 0.00 95 1012.3
20260507072024 46 154 0.0 0.0 0.00 0.00 0.00 94 1012.5
20260507071522 46 155 0.0 0.0 0.00 0.00 0.00 94 1012.4
20260507071018 46 154 0.0 0.0 0.00 0.00 0.00 94 1012.2
20260507070515 46 155 0.0 0.0 0.00 0.00 0.00 94 1012.3
20260507070013 46 155 0.0 0.0 0.00 0.00 0.00 93 1012.4
20260507065508 46 150 0.0 0.0 0.00 0.00 0.00 92 1012.4
20260507065006 46 160 0.0 0.0 0.00 0.00 0.00 91 1012.1
20260507064504 46 160 0.0 0.0 0.00 0.00 0.00 91 1012.2
20260507064002 46 160 0.0 0.0 0.00 0.00 0.00 92 1012.1
20260507063459 46 155 0.0 0.0 0.00 0.00 0.00 92 1012.1
20260507062956 46 157 0.0 0.0 0.00 0.00 0.00 92 1012.6
20260507062453 46 157 0.0 0.0 0.00 0.00 0.00 91 1012.5
20260507061950 46 160 0.0 0.0 0.00 0.00 0.00 91 1012.6
20260507061448 47 162 0.0 0.0 0.00 0.00 0.00 90 1012.5
20260507060946 47 165 0.0 0.0 0.00 0.00 0.00 90 1012.5
20260507060443 47 173 0.0 0.0 0.00 0.00 0.00 89 1012.4
20260507055939 48 173 0.0 0.0 0.00 0.00 0.00 89 1012.5
20260507055434 48 173 0.0 0.0 0.00 0.00 0.00 89 1012.3
20260507054932 48 173 0.0 0.0 0.00 0.00 0.00 89 1012.5
20260507054428 49 195 0.0 0.0 0.00 0.00 0.00 89 1012.3
20260507053925 49 172 0.0 0.0 0.00 0.00 0.00 89 1012.3
20260507053422 49 161 0.0 0.0 0.00 0.00 0.00 89 1012.3
20260507052920 49 172 0.0 0.0 0.00 0.00 0.00 89 1012.3
20260507052417 50 168 0.0 0.0 0.00 0.00 0.00 88 1012.4
20260507051909 50 171 0.0 0.0 0.00 0.00 0.00 89 1012.2
20260507051407 50 170 0.0 0.0 0.00 0.00 0.00 89 1012.4
20260507050903 50 170 0.0 0.0 0.00 0.00 0.00 87 1012.4
20260507050400 50 198 0.0 0.0 0.00 0.00 0.00 86 1012.3
20260507045857 50 181 0.0 0.0 0.00 0.00 0.00 87 1012.4
20260507045353 50 176 0.0 0.0 0.00 0.00 0.00 89 1012.2
20260507044851 50 167 0.0 0.0 0.00 0.00 0.00 91 1012.0
20260507044347 50 180 0.0 0.0 0.00 0.00 0.00 92 1012.1
20260507043843 50 177 0.0 0.0 0.00 0.00 0.00 94 1012.1
20260507043340 50 177 0.0 0.0 0.00 0.00 0.00 93 1012.0
20260507042836 50 177 0.0 0.0 0.00 0.00 0.00 93 1012.0
20260507042332 50 180 0.0 0.0 0.00 0.00 0.00 93 1012.0
20260507041829 50 178 0.0 0.0 0.00 0.00 0.00 93 1012.0
20260507041325 50 173 0.0 0.0 0.00 0.00 0.00 94 1012.1
20260507040823 50 173 0.0 0.0 0.00 0.00 0.00 95 1012.1
20260507040319 50 172 0.0 0.0 0.00 0.00 0.00 95 1011.9
20260507035815 50 171 0.0 0.0 0.00 0.31 0.31 95 1011.7
20260507035310 50 171 0.0 0.0 0.00 0.31 0.31 95 1011.8
20260507034808 50 172 0.0 0.0 0.00 0.31 0.31 95 1011.8
20260507034305 49 154 0.0 0.0 0.00 0.31 0.31 95 1011.7
20260507033803 49 154 0.0 0.0 0.00 0.31 0.31 95 1012.1
20260507033301 49 153 0.0 0.0 0.00 0.31 0.31 95 1011.9
20260507032757 49 147 0.0 0.0 0.00 0.31 0.31 95 1012.1
20260507032253 49 174 0.0 0.0 0.00 0.31 0.31 95 1012.1
20260507031750 49 174 0.0 0.0 0.00 0.31 0.31 95 1012.2
20260507031247 49 175 0.0 0.0 0.00 0.31 0.31 95 1012.2
20260507030744 49 156 0.0 0.0 0.00 0.31 0.31 94 1012.1
20260507030241 49 156 0.0 0.0 0.00 0.31 0.31 94 1011.7
20260507025738 49 156 0.0 0.0 0.00 0.31 0.31 94 1011.9
20260507025235 49 154 0.0 0.0 0.00 0.31 0.31 93 1011.8
20260507024733 50 154 0.0 0.0 0.00 0.31 0.31 93 1011.9
20260507024231 50 154 0.0 0.0 0.00 0.31 0.31 92 1011.9
20260507023726 50 157 0.0 0.0 0.00 0.31 0.31 92 1011.9
20260507023223 51 157 0.0 0.0 0.00 0.31 0.31 91 1011.7
20260507022720 51 157 0.0 0.0 0.00 0.31 0.31 90 1011.8
20260507022216 51 157 0.0 0.0 0.00 0.31 0.31 90 1011.9
20260507021712 52 157 0.0 0.0 0.00 0.31 0.31 89 1012.0
20260507021208 52 157 0.0 0.0 0.00 0.31 0.31 88 1012.2
20260507020707 52 158 0.0 0.0 0.00 0.31 0.31 87 1012.4
20260507020202 52 158 0.0 0.0 0.00 0.31 0.31 87 1012.1
20260507015700 52 165 0.0 0.0 0.00 0.31 0.31 87 1012.3
20260507015158 52 185 0.0 0.0 0.00 0.31 0.31 87 1012.5
20260507014654 52 165 0.0 0.0 0.00 0.31 0.31 87 1012.2
20260507014150 53 165 0.0 0.0 0.00 0.31 0.31 88 1012.3
20260507013647 53 180 0.0 0.0 0.00 0.31 0.31 88 1012.3
20260507013144 53 176 0.0 0.0 0.00 0.31 0.31 86 1012.1
20260507012642 53 176 0.0 0.0 0.00 0.31 0.31 87 1012.0
20260507012137 53 180 0.0 0.0 0.00 0.31 0.31 87 1012.2
20260507011636 53 158 0.0 0.0 0.00 0.31 0.31 87 1012.0
20260507011131 53 169 0.0 0.0 0.00 0.31 0.31 88 1012.8
20260507010626 53 172 0.0 0.0 0.00 0.31 0.31 87 1012.4
20260507010122 53 180 0.0 0.0 0.00 0.31 0.31 88 1012.2
20260507005620 53 182 0.0 0.0 0.00 0.31 0.31 87 1011.9
20260507005116 53 180 0.0 0.0 0.00 0.31 0.31 87 1012.1
20260507004613 53 179 0.0 0.0 0.00 0.31 0.31 88 1011.9
20260507004110 53 178 0.0 0.0 0.00 0.31 0.31 88 1011.7
20260507003606 53 180 0.0 0.0 0.00 0.31 0.31 87 1011.8
20260507003101 53 176 0.0 0.0 0.00 0.31 0.31 87 1011.4
20260507002558 53 173 0.0 0.0 0.00 0.31 0.31 87 1011.5
20260507002054 53 174 0.0 0.0 0.00 0.31 0.31 87 1011.6
20260507001551 53 177 0.0 0.0 0.00 0.31 0.31 86 1011.2
20260507001048 53 182 0.0 0.0 0.00 0.31 0.31 87 1011.3
20260507000544 53 175 0.0 0.0 0.00 0.31 0.31 87 1011.0
20260507000040 53 173 0.0 0.0 0.00 0.31 0.31 87 1011.1
20260506235537 53 161 0.0 0.0 0.00 0.31 0.31 86 1010.9
20260506235032 53 149 0.0 0.0 0.00 0.31 0.31 85 1010.7
20260506234530 53 121 0.0 0.0 0.00 0.31 0.31 85 1010.7
20260506234022 53 185 0.0 0.0 0.00 0.31 0.31 85 1010.8
20260506233518 53 151 0.0 0.0 0.00 0.31 0.31 86 1010.6
20260506233016 53 153 0.0 0.0 0.00 0.31 0.31 86 1010.5
20260506232512 53 158 0.0 0.0 0.00 0.31 0.31 85 1010.6
20260506232007 53 191 0.0 0.0 0.00 0.31 0.31 86 1010.6
20260506231505 53 149 0.0 0.0 0.00 0.31 0.31 86 1010.5
20260506231003 53 146 0.0 0.0 0.00 0.31 0.31 86 1010.5
20260506230458 53 170 0.0 0.0 0.00 0.31 0.31 86 1010.3
20260506225956 54 119 0.0 0.9 0.00 0.31 0.31 86 1010.5
20260506225453 54 152 0.0 0.0 0.00 0.31 0.31 86 1010.5
20260506224949 54 100 0.0 0.0 0.00 0.31 0.31 87 1010.4
20260506224446 54 155 0.0 0.0 0.00 0.31 0.31 87 1010.2
20260506223943 54 169 0.0 0.0 0.00 0.31 0.31 87 1010.2
20260506223438 54 152 0.0 0.0 0.00 0.31 0.31 87 1010.3
20260506222936 54 186 0.0 0.0 0.00 0.31 0.31 86 1010.3
20260506222432 54 134 0.0 0.0 0.00 0.31 0.31 87 1010.3
20260506221929 54 201 0.0 0.0 0.00 0.31 0.31 87 1010.3
20260506221426 54 138 0.0 0.0 0.00 0.31 0.31 86 1010.0
20260506220924 54 185 0.0 0.0 0.00 0.31 0.31 87 1010.2
20260506220419 54 171 0.0 0.0 0.00 0.31 0.31 87 1010.1
20260506215916 54 224 0.0 0.0 0.00 0.31 0.31 87 1009.7
20260506215412 54 194 0.0 0.9 0.00 0.31 0.31 87 1009.8
20260506214908 55 161 0.0 0.0 0.00 0.31 0.31 87 1009.7
20260506214405 55 169 0.0 0.0 0.00 0.31 0.31 88 1009.5
20260506213903 55 194 0.0 0.0 0.00 0.31 0.31 88 1009.5
20260506213401 55 186 0.9 1.7 0.00 0.31 0.31 88 1009.3
20260506212858 55 180 0.0 0.0 0.00 0.31 0.31 89 1009.2
20260506212353 55 143 0.0 0.0 0.00 0.31 0.31 88 1008.9
20260506211848 55 145 0.0 0.0 0.00 0.31 0.31 91 1008.8
20260506211344 55 142 0.0 0.0 0.00 0.31 0.31 92 1008.9
20260506210842 55 169 0.0 0.0 0.00 0.31 0.31 93 1008.8
20260506210338 55 189 0.0 0.0 0.00 0.31 0.31 93 1008.6
20260506205836 55 165 0.0 0.0 0.00 0.31 0.31 93 1008.4
20260506205332 55 172 0.0 0.0 0.00 0.31 0.31 93 1008.5
20260506204828 56 169 0.0 0.0 0.00 0.31 0.31 92 1008.4
20260506204326 56 164 0.0 0.0 0.00 0.31 0.31 91 1008.4
20260506203824 56 178 0.0 0.0 0.00 0.31 0.31 92 1008.4
20260506203320 56 166 0.0 0.0 0.00 0.31 0.31 91 1008.2
20260506202817 57 198 0.0 0.0 0.00 0.31 0.31 91 1007.9
20260506202315 57 221 0.0 0.0 0.00 0.31 0.31 90 1007.7
20260506201811 58 174 0.0 0.0 0.00 0.31 0.31 89 1007.6
20260506201308 60 106 0.0 0.9 0.00 0.31 0.31 87 1007.5
20260506200805 62 225 1.7 1.7 0.00 0.31 0.31 87 1007.2
20260506200301 62 219 0.0 0.0 0.00 0.31 0.31 87 1007.0
20260506195757 63 173 0.0 0.9 0.00 0.31 0.31 87 1006.9
20260506195255 63 177 0.0 0.0 0.00 0.31 0.31 87 1007.0
20260506194752 63 171 0.0 0.0 0.00 0.31 0.31 87 1006.8
20260506194248 63 175 0.0 0.0 0.00 0.31 0.31 87 1006.8
20260506193746 62 188 0.9 1.7 0.00 0.31 0.31 88 1006.8
20260506193242 62 209 0.0 0.0 0.00 0.31 0.31 92 1006.6
20260506192738 62 170 0.0 0.0 0.00 0.31 0.31 93 1006.8
20260506192236 62 194 0.0 0.0 0.00 0.31 0.31 94 1006.9
20260506191732 62 169 0.0 0.0 0.00 0.31 0.31 94 1007.0
20260506191229 62 171 0.0 0.0 0.00 0.31 0.31 94 1006.8
20260506190726 62 165 0.0 0.0 0.00 0.31 0.31 95 1006.5
20260506190222 61 171 0.0 0.0 0.00 0.31 0.31 95 1006.9
20260506185720 61 170 0.0 0.0 0.00 0.31 0.31 95 1006.9
20260506185216 61 201 0.0 0.0 0.00 0.31 0.31 94 1006.9
20260506184714 61 192 0.0 0.0 0.00 0.31 0.31 94 1006.8
20260506184211 61 192 0.0 0.0 0.00 0.31 0.31 94 1007.2
20260506183707 62 174 0.0 0.0 0.00 0.31 0.31 94 1006.8
20260506183203 62 181 0.0 0.0 0.00 0.31 0.31 94 1006.6
20260506182701 62 180 0.0 0.0 0.00 0.31 0.31 94 1006.9
20260506182157 62 175 0.0 0.0 0.00 0.31 0.31 94 1006.5
20260506181655 62 183 0.0 0.0 0.00 0.31 0.31 94 1006.8
20260506181152 62 176 0.0 0.0 0.00 0.31 0.31 94 1006.8
20260506180650 62 192 0.0 0.0 0.00 0.31 0.31 94 1006.5
20260506180145 62 173 0.0 0.0 0.00 0.31 0.31 94 1006.8
20260506175642 61 173 0.0 0.0 0.00 0.31 0.31 95 1006.8
20260506175138 61 147 0.0 0.0 0.05 0.31 0.31 96 1006.9
20260506174631 61 145 0.0 0.0 0.05 0.31 0.31 95 1006.9
20260506174128 61 152 0.0 0.0 0.00 0.30 0.30 96 1006.8
20260506173626 60 151 0.0 0.0 0.00 0.30 0.30 96 1006.8
20260506173122 60 151 0.0 0.0 0.00 0.30 0.30 97 1006.6
20260506172619 60 149 0.0 0.0 0.00 0.30 0.30 97 1006.6
20260506172115 61 180 0.0 0.0 0.00 0.30 0.30 97 1006.6
20260506171613 60 156 0.0 0.0 0.00 0.30 0.30 98 1006.5
20260506171110 60 134 0.0 0.0 0.00 0.30 0.30 98 1006.6
20260506170607 60 144 0.0 0.0 0.00 0.30 0.30 98 1006.9
20260506170059 60 171 0.0 0.0 0.00 0.30 0.30 98 1007.1
20260506165557 60 154 0.0 0.0 0.00 0.30 0.30 98 1006.8
20260506165048 60 153 0.0 0.0 0.00 0.30 0.30 98 1006.8
20260506164545 60 160 0.0 0.0 0.00 0.30 0.30 99 1007.2
20260506164042 60 160 0.0 0.0 0.00 0.30 0.30 99 1007.2
20260506163538 59 155 0.0 0.0 0.00 0.30 0.30 99 1007.1
20260506163033 60 183 0.0 0.0 0.00 0.30 0.30 99 1007.2
20260506162530 59 156 0.0 0.0 0.00 0.30 0.30 99 1007.0
20260506162027 59 176 0.0 0.0 0.00 0.30 0.30 99 1007.1
20260506161524 59 174 0.0 0.0 0.00 0.30 0.30 99 1007.2
20260506161016 59 128 0.0 0.0 0.00 0.30 0.30 99 1007.0
20260506160513 59 148 0.0 0.0 0.00 0.30 0.30 99 1006.9
20260506160010 59 159 0.0 0.0 0.00 0.30 0.30 99 1007.1
20260506155508 59 156 0.0 0.0 0.00 0.30 0.30 99 1007.0
20260506153640 58 171 0.0 0.0 0.00 0.30 0.30 99 1007.4
20260506153137 59 181 0.0 0.0 0.00 0.30 0.30 99 1007.1
20260506152634 59 174 0.0 0.0 0.00 0.30 0.30 99 1007.0
20260506152132 58 155 0.0 0.0 0.00 0.30 0.30 98 1007.0
20260506151630 58 155 0.0 0.0 0.00 0.30 0.30 98 1006.6
20260506151127 58 151 0.0 0.0 0.00 0.30 0.30 98 1006.5
20260506150624 58 144 0.0 0.0 0.00 0.30 0.30 97 1006.6
20260506150121 58 163 0.0 0.0 0.00 0.30 0.30 97 1007.0
20260506145618 58 112 0.0 0.0 0.00 0.30 0.30 97 1007.1
20260506145114 58 138 0.0 0.0 0.12 0.30 0.30 97 1007.1
20260506144612 58 124 0.0 0.0 0.12 0.30 0.30 97 1007.1
20260506144108 58 144 0.0 0.0 0.07 0.28 0.28 97 1007.2
20260506143606 58 171 0.0 0.0 0.07 0.28 0.28 97 1007.1
20260506143104 58 137 0.0 0.0 0.05 0.27 0.27 97 1007.1
20260506142602 57 167 0.0 0.0 0.05 0.27 0.27 97 1006.9
20260506142100 57 115 0.0 0.0 0.00 0.26 0.26 98 1006.8
20260506141557 57 141 0.0 0.0 0.07 0.26 0.26 98 1007.0
20260506141056 57 144 0.0 0.0 0.12 0.26 0.26 98 1007.3
20260506140553 58 144 0.0 0.0 0.05 0.25 0.25 98 1006.9
20260506140050 58 134 0.0 0.0 0.07 0.24 0.24 98 1006.9
20260506135547 57 147 0.0 0.0 0.07 0.24 0.24 98 1007.0
20260506135043 57 149 0.0 0.0 0.07 0.23 0.23 99 1007.1
20260506134539 58 137 0.0 0.0 0.07 0.23 0.23 99 1007.0
20260506134035 57 141 0.0 0.0 0.00 0.22 0.22 99 1007.2
20260506133533 57 142 0.0 0.0 0.05 0.22 0.22 99 1007.2
20260506133030 57 142 0.0 0.0 0.05 0.22 0.22 99 1007.0
20260506132527 57 141 0.0 0.0 0.00 0.21 0.21 99 1007.0
20260506132024 58 128 0.0 0.0 0.00 0.21 0.21 99 1007.0
20260506131521 57 153 0.0 0.0 0.00 0.21 0.21 99 1007.1
20260506131017 57 153 0.0 0.0 0.00 0.21 0.21 99 1007.2
20260506130514 57 150 0.0 0.0 0.00 0.21 0.21 99 1007.0
20260506130012 58 157 0.0 0.0 0.12 0.21 0.21 99 1007.1
20260506125510 58 157 0.0 0.0 0.12 0.21 0.21 99 1007.2
20260506125008 57 154 0.0 0.0 0.07 0.19 0.19 99 1007.0
20260506124505 57 138 0.0 0.0 0.12 0.19 0.19 99 1007.2
20260506124003 57 132 0.0 0.0 0.12 0.18 0.18 99 1007.2
20260506123501 57 155 0.0 0.0 0.24 0.18 0.18 99 1007.3
20260506122958 57 129 0.0 0.0 0.12 0.16 0.16 99 1007.7
20260506122455 57 133 0.0 0.0 0.12 0.14 0.14 99 1007.8
20260506121953 57 110 0.0 0.0 0.17 0.14 0.14 99 1007.8
20260506121450 57 125 0.0 0.0 0.12 0.12 0.12 99 1007.9
20260506120946 57 120 0.0 0.0 0.07 0.11 0.11 99 1007.9
20260506120444 57 144 0.0 0.0 0.14 0.11 0.11 99 1008.0
20260506115941 57 149 0.0 0.0 0.07 0.10 0.10 99 1007.8
20260506115439 57 148 0.0 0.0 0.00 0.09 0.09 99 1007.7
20260506114937 57 136 0.0 0.0 0.05 0.09 0.09 99 1007.4
20260506114434 57 152 0.0 0.0 0.05 0.09 0.09 99 1007.5
20260506113933 57 140 0.0 0.0 0.05 0.09 0.09 99 1007.4
20260506113431 57 134 0.0 0.0 0.00 0.08 0.08 99 1007.3
20260506112927 57 144 0.0 0.0 0.07 0.08 0.08 99 1007.5
20260506112425 57 137 0.0 0.0 0.07 0.08 0.08 99 1007.4
20260506111921 57 141 0.0 0.0 0.00 0.07 0.07 99 1007.5
20260506111420 57 138 0.0 0.0 0.00 0.07 0.07 99 1007.2
20260506110916 57 133 0.0 0.0 0.00 0.07 0.07 99 1007.3
20260506110414 57 144 0.0 0.0 0.05 0.07 0.07 99 1007.2
20260506105910 57 139 0.0 0.0 0.05 0.07 0.07 98 1007.1